Theta_e
331 327 326 323 310 308 301 301 308 306 308 313 315 313 312 314 312 308 332 337 340 343 346 346 345 346 346 346 345 345 345 347 346 344 343 343 342 339 341 341 343 341 337 337 338 339 339 338 337
325 325 325 319 308 302 301 305 304 309 313 316 316 315 314 312 323 326 329 337 341 344 345 345 342 345 345 345 345 345 346 345 344 343 341 341 340 338 337 339 340 340 336 336 336 339 339 338 337
323 321 320 315 308 303 303 305 307 310 316 315 315 320 317 314 324 328 334 339 342 344 346 343 343 345 345 345 344 344 345 345 344 342 340 339 338 337 336 336 336 337 336 334 334 336 337 336 335
324 324 318 310 303 304 306 308 310 312 315 314 317 312 321 326 326 331 338 341 342 343 345 342 344 345 345 345 344 344 343 344 345 344 342 340 338 337 337 337 336 336 335 334 336 335 336 335 334
326 321 312 307 305 306 307 310 312 311 312 313 316 308 313 326 331 336 339 340 341 343 344 344 343 344 344 345 344 343 342 342 344 343 344 343 340 337 337 335 334 334 335 334 333 334 335 335 333
316 318 308 304 304 307 310 311 313 311 312 314 313 312 315 329 332 336 339 339 341 341 345 344 337 339 342 343 342 341 342 341 340 340 344 343 341 340 337 336 335 334 333 333 335 335 335 334 333
312 313 307 306 305 306 308 313 311 311 312 313 317 308 318 325 332 336 337 339 338 341 344 343 342 339 335 337 338 339 339 339 338 337 338 342 340 339 338 337 336 334 332 332 334 334 333 333 333
318 315 307 308 304 305 310 312 313 312 311 317 320 312 314 324 333 334 335 337 336 340 343 342 341 340 339 338 332 334 336 335 334 333 331 328 334 334 334 332 335 335 333 332 332 334 332 330 330
316 309 305 308 306 307 310 309 312 315 314 317 320 319 323 329 334 331 330 330 332 336 339 340 340 340 339 338 333 331 331 331 331 330 327 327 335 334 332 328 332 335 335 333 332 332 332 331 327
312 304 306 311 312 310 309 311 312 313 313 314 319 323 325 329 330 328 326 327 328 331 335 338 338 339 339 337 337 336 335 334 334 333 334 333 333 334 331 326 326 330 331 333 333 333 332 328 331
307 302 305 309 310 311 310 310 314 313 311 315 316 321 324 326 328 328 328 330 330 331 333 335 336 338 338 337 337 336 336 335 335 334 334 334 333 333 333 333 330 331 325 331 332 332 330 330 330
300 304 306 306 310 310 308 312 310 313 314 317 320 324 324 325 325 327 327 328 330 331 331 333 335 336 336 336 336 337 335 335 334 334 334 332 332 332 332 331 332 332 332 331 332 331 331 329 328
302 303 304 306 307 309 311 310 310 310 314 319 318 322 323 325 326 329 329 330 331 330 333 332 333 334 335 335 334 334 334 334 335 334 334 332 330 329 329 329 330 330 331 331 330 330 329 329 327
305 304 305 306 306 307 307 308 310 313 315 316 317 319 323 323 326 328 329 329 329 331 332 334 332 332 333 333 334 333 333 333 334 335 334 333 332 331 330 329 328 328 329 328 328 327 328 328 328
306 301 304 305 306 304 307 302 304 312 313 313 316 319 322 323 324 325 327 328 330 331 333 333 333 333 332 332 332 332 333 333 332 332 335 334 333 332 331 330 329 329 329 328 327 327 327 326 326
303 302 296 300 304 305 305 295 302 307 310 313 314 316 319 322 324 325 326 326 328 330 331 333 333 333 332 332 332 332 332 333 332 331 332 332 333 333 332 331 330 331 330 328 327 326 326 325 325
299 295 296 298 302 301 302 298 303 306 306 307 311 313 314 316 321 325 328 328 328 328 328 328 333 333 334 333 332 332 332 331 331 331 331 330 329 332 333 332 331 331 329 328 327 326 326 325 325
293 294 295 296 298 299 300 300 304 306 305 307 308 309 310 310 313 317 320 326 329 331 331 330 329 331 333 335 333 331 331 330 330 330 330 330 329 329 333 332 332 331 329 328 328 326 326 324 324
296 295 294 296 297 296 297 298 301 303 303 304 306 307 308 310 314 315 315 317 316 318 322 325 327 328 330 332 331 327 327 328 328 329 333 334 333 332 332 332 331 330 329 329 329 327 325 324 322
293 291 291 293 296 295 295 294 297 299 300 301 303 304 305 308 310 312 314 315 316 316 316 319 322 325 327 330 332 331 331 331 331 331 330 333 333 333 332 332 330 328 327 328 326 324 322 321 322
294 292 291 289 294 293 292 289 290 293 296 298 300 302 304 304 305 307 309 310 313 314 316 316 320 324 325 327 329 330 331 330 330 330 331 331 332 332 332 331 331 329 326 327 326 323 320 319 322
288 296 295 293 291 284 292 283 289 292 293 295 297 299 300 300 301 302 302 304 307 310 314 315 316 320 325 326 326 327 325 324 327 329 330 330 331 331 331 331 331 330 327 325 327 326 322 321 318
287 295 294 293 290 288 288 285 288 291 291 294 295 296 298 299 299 299 302 302 304 307 309 311 311 312 318 324 325 325 325 326 328 327 327 328 329 329 329 329 329 328 328 328 325 322 321 321 319
295 293 292 291 289 282 286 285 287 288 291 292 294 295 298 300 300 301 302 299 301 306 308 310 311 311 319 322 324 325 325 325 324 325 325 325 326 326 327 327 327 328 327 327 327 325 322 321 320
292 288 281 281 281 280 284 285 287 292 294 294 294 297 299 299 299 301 304 303 302 307 310 314 316 317 320 322 323 324 324 324 324 324 324 324 325 326 326 326 326 325 326 326 326 325 323 320 319
290 287 282 276 278 281 283 281 287 293 295 296 296 296 296 298 299 302 303 303 305 307 308 308 311 313 319 321 322 323 323 324 324 325 324 320 319 319 321 322 323 324 324 324 324 323 321 320 320
289 285 289 281 277 280 284 287 290 294 294 295 293 293 294 297 300 302 301 303 304 304 304 305 305 305 307 308 308 308 309 309 308 309 310 311 312 311 311 312 313 314 315 317 318 318 318 319 319
292 293 284 285 278 277 282 283 285 288 291 295 294 293 296 297 300 299 300 300 301 303 303 304 305 305 305 306 307 306 306 307 307 308 307 307 308 307 307 307 308 308 308 309 310 311 313 315 315
288 287 288 288 285 279 277 282 292 292 294 293 293 292 295 297 299 299 298 299 300 302 302 303 304 304 304 305 305 305 305 305 306 306 305 305 305 304 305 305 305 305 305 306 306 307 307 307 308
291 289 289 283 281 284 282 283 289 291 292 293 294 293 295 295 299 301 298 298 299 300 301 303 304 304 305 304 304 304 304 304 304 303 302 303 302 302 302 302 301 302 302 303 303 303 303 303 303
Wind_Speed
14 6 2 4 4 3 3 4 0 6 6 3 6 3 1 4 3 4 5 6 13 14 16 15 13 13 12 12 12 10 10 12 14 14 12 12 13 12 11 10 14 12 13 13 12 13 14 13 12
10 3 3 1 4 3 4 4 6 6 4 7 6 5 4 3 3 6 12 7 15 14 14 14 12 13 13 13 11 10 10 11 13 13 12 11 10 11 10 9 8 12 12 11 10 11 12 11 10
4 4 3 1 1 1 3 6 7 6 9 4 4 1 1 3 4 11 5 14 15 13 14 13 13 13 13 12 11 10 10 11 11 11 12 11 10 9 10 8 6 10 9 9 9 8 10 9 9
4 3 3 5 2 2 2 8 7 10 5 2 1 3 3 3 4 5 12 16 14 13 13 14 13 13 12 11 11 8 7 14 11 10 12 14 12 9 7 7 6 6 8 7 8 6 7 7 7
1 2 2 2 2 1 1 5 10 11 6 5 4 3 2 4 5 10 15 15 14 12 12 14 11 12 12 10 9 8 6 7 11 9 10 13 14 11 8 6 6 5 7 7 7 4 6 6 5
3 2 4 5 4 2 2 7 9 8 5 5 5 4 4 6 10 11 13 14 13 12 13 12 10 9 10 10 9 7 6 6 5 6 9 11 13 13 10 8 6 5 3 7 7 3 5 4 5
4 3 3 4 6 5 5 9 9 9 6 6 1 5 5 8 9 12 11 12 12 11 12 11 12 11 8 8 8 9 8 6 5 4 6 9 10 11 13 10 7 5 4 3 5 4 3 2 3
4 3 5 5 8 5 8 9 4 9 6 3 3 4 5 12 13 12 11 11 10 10 12 11 11 11 11 10 7 7 7 6 5 5 7 6 7 9 9 7 7 7 5 4 3 4 2 2 1
2 5 7 7 9 7 10 10 4 1 5 4 6 0 5 15 15 13 11 10 10 8 10 10 10 11 10 10 9 8 7 7 6 6 3 5 5 8 8 6 7 6 8 6 5 4 3 1 0
4 5 6 1 3 7 12 12 12 8 8 7 7 5 8 14 15 16 14 13 12 13 11 10 11 10 10 8 9 10 9 8 9 8 8 7 6 5 3 1 8 5 5 6 6 6 4 5 5
2 4 2 1 1 2 10 8 8 8 9 9 13 13 13 15 15 15 15 15 15 14 11 12 11 11 11 9 7 5 5 6 6 9 8 7 6 5 5 4 5 6 6 6 7 7 7 7 5
5 2 1 2 4 1 6 5 6 11 2 1 4 11 15 16 16 17 17 16 16 15 15 14 12 11 11 7 7 7 6 6 6 7 9 7 6 7 6 5 5 5 5 6 6 4 6 7 7
4 1 1 1 2 1 0 4 3 10 4 0 5 9 14 15 16 15 14 14 14 16 15 15 14 13 11 10 7 8 8 7 8 8 9 8 7 7 6 6 6 6 5 6 6 6 6 7 8
3 2 3 2 2 1 3 2 3 5 5 5 5 9 11 13 15 13 14 15 15 15 15 14 15 14 13 12 12 10 9 9 8 8 9 11 8 7 7 6 7 6 6 6 6 6 6 6 7
2 2 2 5 2 2 3 9 11 2 3 8 7 6 8 11 12 16 14 15 15 14 13 15 15 14 14 15 12 9 8 8 8 8 11 12 11 10 9 7 7 7 6 8 7 7 7 8 7
3 2 6 3 3 0 6 13 5 5 8 10 11 9 8 10 14 13 13 13 13 13 15 15 13 15 16 14 11 8 8 8 9 9 7 12 13 12 10 8 8 8 7 7 7 7 7 8 8
3 6 8 3 1 2 8 5 2 2 4 14 13 11 9 10 11 13 14 13 12 13 14 15 16 17 17 15 11 11 10 9 8 7 7 12 13 13 11 9 9 9 7 7 7 7 8 8 8
8 7 5 6 4 3 7 15 8 4 5 7 10 12 12 14 17 14 14 13 13 14 14 15 13 16 16 12 11 8 7 8 8 9 10 13 9 13 12 10 10 9 7 8 8 10 9 8 8
4 5 4 2 3 3 10 15 13 11 12 15 16 15 15 16 16 13 13 12 12 13 14 16 15 16 12 11 11 10 10 8 8 10 15 14 13 14 13 10 10 9 10 10 10 9 10 9 6
6 6 6 2 1 2 8 14 16 15 15 16 18 19 20 19 18 14 12 12 13 15 15 14 15 14 14 11 11 9 9 11 11 10 12 14 15 14 12 12 10 11 9 11 10 10 7 6 6
9 11 7 3 0 2 8 14 9 4 8 11 15 19 19 18 17 14 13 14 14 15 15 13 14 14 14 15 10 9 7 6 7 10 9 11 14 14 14 13 11 10 9 9 10 10 11 8 6
7 9 9 5 3 5 3 7 4 7 11 12 16 12 14 12 12 12 12 15 14 15 12 12 12 11 12 14 12 15 11 11 9 8 7 8 11 12 12 12 11 11 8 10 9 8 9 8 9
1 4 6 4 5 2 6 7 3 3 8 15 5 1 2 3 8 12 10 11 11 11 10 11 12 12 12 12 13 11 12 8 7 5 7 8 7 9 9 10 10 10 8 9 10 8 9 6 7
9 6 5 3 2 5 9 9 9 7 8 1 1 5 6 7 10 11 8 7 7 5 6 7 9 10 11 12 14 13 11 9 6 6 5 4 4 5 8 9 8 8 8 9 8 9 11 7 7
4 8 2 3 5 5 1 7 11 13 13 8 7 10 10 10 10 9 7 5 5 6 5 5 7 7 9 11 11 11 10 8 8 6 5 5 4 4 6 7 7 7 8 8 8 8 9 9 8
15 7 4 6 5 3 2 8 4 8 11 11 9 9 9 10 7 6 4 4 5 6 7 8 8 7 7 8 8 7 6 5 5 6 4 4 3 3 3 4 4 5 6 7 7 7 7 6 7
7 10 1 3 2 3 7 9 10 10 13 10 3 4 2 6 6 4 1 3 5 5 6 8 9 9 8 9 7 6 5 5 4 4 2 1 1 0 1 2 3 4 4 5 6 6 8 9 10
6 12 5 3 6 9 9 9 10 4 9 11 4 5 8 5 4 3 3 3 3 4 5 6 7 8 8 7 6 5 5 4 4 3 3 2 1 2 4 4 4 4 4 5 5 5 7 9 8
7 8 4 3 6 6 9 8 3 12 11 6 2 2 7 8 5 4 3 4 4 4 5 6 6 7 7 6 6 6 5 4 4 3 3 2 2 3 2 3 4 4 5 5 5 6 7 9 9
11 10 15 8 6 6 6 13 5 5 6 5 6 4 3 4 4 5 4 4 5 6 6 7 6 6 6 6 7 6 6 5 5 4 3 2 1 1 3 4 4 4 4 5 6 7 7 8 9
Wind_Direction
322 325 246 218 223 249 133 157 86 154 164 99 130 191 322 1 330 28 133 114 147 148 142 146 136 139 139 134 133 132 128 119 118 115 115 111 111 103 105 89 108 104 103 95 97 102 103 99 92
319 290 218 158 251 238 110 145 187 152 103 136 140 156 194 95 74 106 143 157 154 146 152 146 138 145 144 141 139 134 130 122 120 125 126 116 115 111 108 89 79 105 102 98 102 101 102 99 95
297 290 255 220 259 278 102 174 143 128 140 166 149 297 74 87 102 144 107 152 151 152 152 139 139 148 150 149 145 143 138 136 128 129 126 123 120 118 112 104 86 113 109 101 103 111 107 100 97
315 198 150 250 175 78 29 150 148 144 183 227 234 165 135 33 139 142 143 153 151 157 155 141 146 151 155 153 154 153 161 152 151 156 156 138 131 124 115 121 106 117 122 109 94 100 122 111 109
280 246 188 198 152 168 218 152 166 163 155 169 199 128 109 110 125 137 150 156 152 162 154 156 152 152 156 162 155 141 149 134 162 171 165 149 141 140 137 122 128 110 127 122 110 112 118 119 108
236 274 208 206 170 152 160 168 169 171 158 143 202 161 110 119 150 147 157 160 155 163 159 153 151 151 155 157 151 143 128 129 133 122 141 155 151 146 142 138 137 139 146 155 128 111 142 125 113
280 239 217 159 156 169 164 166 188 175 167 186 125 166 107 167 150 148 165 161 161 165 167 163 169 166 159 164 160 161 147 135 125 103 83 161 165 150 148 151 153 153 160 181 148 136 101 104 127
291 251 177 187 179 171 153 176 205 189 173 100 207 180 154 164 150 151 159 160 169 169 177 170 175 176 175 175 173 169 167 154 140 112 100 57 165 155 158 153 155 162 167 179 159 154 171 131 137
297 226 210 185 174 161 155 184 173 128 158 194 173 290 93 138 146 150 155 164 178 182 187 179 186 184 185 184 176 179 181 178 166 157 131 149 187 183 170 151 157 182 168 173 186 207 222 131 92
246 240 211 233 217 180 173 194 161 183 176 197 181 138 135 147 161 167 176 179 185 190 191 187 190 197 190 191 183 195 188 197 197 197 194 208 201 195 217 185 154 173 189 181 194 211 202 219 239
157 255 338 102 334 222 174 194 177 185 201 207 202 174 164 165 181 181 190 191 190 193 194 197 192 195 202 195 192 198 200 203 205 205 205 208 210 197 208 202 192 206 191 219 203 201 225 231 245
242 226 302 21 2 219 177 161 198 212 141 278 148 162 164 178 190 192 194 195 190 193 202 203 200 199 203 202 207 202 203 205 211 212 210 210 214 214 218 221 220 223 218 235 238 245 250 246 247
247 340 238 331 324 360 247 199 238 229 210 226 172 165 181 187 199 200 199 201 194 198 200 205 205 204 202 204 208 213 209 214 216 216 213 215 216 219 219 222 223 227 231 238 242 246 250 250 256
133 278 308 319 223 257 245 211 271 228 182 200 199 196 193 198 200 198 203 203 203 204 203 201 209 212 211 210 212 216 215 214 222 224 221 218 225 221 220 222 224 227 229 236 243 247 250 259 261
144 218 268 231 246 209 203 243 233 252 223 218 220 215 205 208 206 212 209 212 206 210 205 207 204 211 212 214 217 219 219 213 220 224 229 223 220 225 228 230 231 230 225 236 239 242 244 252 254
194 229 228 115 226 96 226 241 238 261 248 234 229 231 230 218 223 223 224 222 214 214 213 211 206 207 214 216 216 215 217 218 222 230 225 231 230 228 228 234 235 235 230 229 233 240 244 249 257
211 222 216 222 149 286 221 255 247 354 240 246 247 251 252 256 238 235 232 229 223 220 219 218 213 215 211 216 215 214 213 215 219 220 220 224 226 231 230 233 237 233 232 232 236 240 244 259 252
196 212 212 221 116 204 217 253 250 246 296 265 266 264 260 260 256 248 238 230 229 227 229 227 219 219 215 214 216 217 215 216 216 217 222 224 216 219 227 232 234 231 234 237 235 241 243 241 262
161 192 204 207 100 278 251 259 261 266 269 266 266 262 254 251 258 252 251 240 231 230 231 229 226 219 211 207 206 217 217 216 218 221 227 221 217 220 224 228 229 231 233 237 239 241 247 253 229
203 184 221 257 80 267 281 274 275 261 254 248 251 253 255 256 252 249 251 247 237 239 229 229 226 220 212 211 211 214 209 222 221 221 223 224 224 224 224 226 226 226 235 241 240 235 231 237 223
217 227 202 247 233 173 300 270 249 235 259 252 248 250 257 261 269 266 257 249 246 241 238 229 224 220 213 214 212 214 222 228 212 220 222 219 221 222 220 228 229 227 224 238 232 229 226 239 232
217 217 222 210 235 254 324 287 261 267 270 259 259 244 253 252 261 271 268 258 244 241 239 237 229 225 220 211 208 210 216 226 226 226 219 211 217 222 224 225 226 229 219 234 241 237 230 228 245
214 149 187 188 216 284 188 252 238 277 269 254 255 262 178 255 275 281 278 258 251 246 234 238 240 235 229 215 216 215 228 240 235 221 222 215 210 219 221 223 226 229 231 235 237 233 233 232 231
140 111 92 91 176 237 212 237 253 219 229 242 194 178 288 293 288 290 298 268 234 219 218 219 220 220 206 205 207 213 223 229 224 221 216 204 203 204 216 220 228 234 237 241 244 238 241 235 228
190 164 171 211 207 254 110 223 275 276 255 244 260 284 302 298 293 300 308 269 199 186 174 172 185 185 187 189 190 200 209 213 224 223 225 214 213 214 221 219 225 231 237 247 252 251 249 248 248
192 193 201 241 236 289 120 233 216 279 295 274 248 255 273 287 273 275 300 269 190 165 152 138 138 135 150 162 167 175 185 195 197 198 200 206 208 205 191 211 227 236 244 248 254 261 264 263 253
174 214 79 81 86 269 231 244 272 279 275 261 203 221 312 302 303 296 274 177 180 162 149 138 132 128 131 133 136 135 137 144 150 144 163 194 187 175 225 221 230 238 245 247 249 245 249 252 258
208 148 156 214 231 249 243 254 248 188 235 256 314 25 358 340 287 228 163 154 178 177 160 150 154 149 144 137 138 134 125 119 114 120 120 98 45 12 339 326 318 306 298 286 275 269 265 265 266
169 195 210 224 222 253 272 255 216 233 244 269 223 334 321 318 282 233 194 181 195 207 196 178 172 160 151 148 142 134 131 131 130 129 106 63 10 352 326 316 311 311 306 301 292 280 279 275 278
253 225 204 214 196 242 289 258 157 209 175 208 264 280 307 289 258 233 243 240 215 218 217 207 194 183 174 168 157 154 155 159 158 155 143 137 184 265 304 296 287 284 286 285 280 276 273 274 275